Regional Weather Roundup
Issued by NWS

Home | Current Version | Previous Version | Graphics & Text | Print | Product List | Glossary On
Versions: 1 2 3 4 5 6 7 8 9 10 11 12 13 14 15 16 17 18 19 20 21 22 23 24 25 26 27 28 29 30 31 32 33 34 35 36 37 38 39 40 41 42 43 44 45 46
000
ASUS45 KCYS 250510
RWRWY

WYOMING REGIONAL WEATHER ROUNDUP
NATIONAL WEATHER SERVICE CHEYENNE WY
1000 PM MST WED DEC 24 2014

NOTE:  "FAIR" INDICATES FEW OR NO CLOUDS BELOW 12,000 FEET
WITH NO SIGNIFICANT WEATHER AND/OR OBSTRUCTIONS TO VISIBILITY.

WYZ001-250600-
YELLOWSTONE NATIONAL PARK

CITY           SKY/WX    TMP DP  RH WIND       PRES   REMARKS
LK YELLOWSTONE   N/A     21  19  92 CALM      29.41F
W YELLOWSTONE  NOT AVBL

$$
WYZ002>013-054>058-071-098>099-250600-
NORTHERN WYOMING

CITY           SKY/WX    TMP DP  RH WIND       PRES   REMARKS
JACKSON        CLOUDY    27  27 100 SW12      29.41F VSB 1   WCI  16
CODY           CLOUDY    27  23  86 CALM      29.38S
GREYBULL       CLOUDY    28  22  78 CALM      29.40F
WORLAND        MOCLDY    20  16  84 CALM      29.39F
SHERIDAN       FLURRIES  34  28  79 W8        29.42R WCI  27
BUFFALO        FAIR      34  26  72 N9        29.39R WCI  27
GILLETTE       MOCLDY    35  24  64 N7        29.37R WCI  29
HULETT           N/A    N/A N/A N/A MISG        N/A
NEWCASTLE      FAIR      34  23  64 E5        29.43F WCI  30

$$
WYZ014>020-022>026-101>103-250600-
CENTRAL WYOMING

CITY           SKY/WX    TMP DP  RH WIND       PRES   REMARKS
BIG PINEY      LGT SNOW  23  20  88 E3        29.45F FOG
PINEDALE       LGT SNOW  27  27 100 E10       29.47F WCI  17
DUBOIS         NOT AVBL
LANDER         FAIR      22  15  75 SW7       29.39R WCI  13
RIVERTON       FAIR      20  15  81 NW9       29.40F WCI   9
CASPER         MOCLDY    34  21  59 SW23G33   29.42S WCI  22
DOUGLAS        MOCLDY    41  22  46 VRB6      29.40F

$$
WYZ021-027>030-104>119-250600-
SOUTHERN WYOMING

CITY           SKY/WX    TMP DP  RH WIND       PRES   REMARKS
EVANSTON       FAIR      32  25  75 SW15      29.43F WCI  22
KEMMERER       MOCLDY    32  28  86 SW16      29.44F WCI  21
FORT BRIDGER   FAIR      35  28  74 SW13      29.46F WCI  27
ROCK SPRINGS   CLOUDY    29  18  63 S14       29.49F WCI  18
DIXON          CLOUDY    33  17  51 S14G22    29.63F WCI  23
RAWLINS        MOCLDY    30  15  53 SW31G43   29.50F WCI  15
SARATOGA       CLOUDY    32  21  64 S9        29.56F WCI  24
LARAMIE        FAIR      32  17  54 SW36G44   29.47F WCI  16
CHEYENNE       FAIR      34  19  54 W8        29.48F WCI  27
TORRINGTON     CLOUDY    40  23  50 S5        29.45F
PINE BLUFFS    FAIR      28  21  74 CALM      29.49S

$$



USA.gov is the U.S. government's official web portal to all federal, state and local government web resources and services.